Location: Frankfurt am Main
(50.1109°N, 8.6821°E)
Time: 21:54:17
(UTC+02:00)

NOAA 18 - Pass Details

Date: 30 January 2022
Orbit: 839 x 860 km, 98.9° (Epoch: 28 May)

Event Time Altitude Azimuth Distance (km) Brightness Sun altitude
Exits shadow 20:40:27 11° 3° (N) 2,432 7.6 -32.7°
Drops below altitude 10° 20:40:36 10° 2° (N) 2,481 7.7 -32.8°
Sets 20:43:16 0° 352° (N) 3,424 8.6 -33.2°
